TimeCST,TemperatureF,Dew PointF,Humidity,Sea Level PressureIn,VisibilityMPH,Wind Direction,Wind SpeedMPH,Gust SpeedMPH,PrecipitationIn,Events,Conditions,WindDirDegrees,DateUTC
12:56 AM,10.0,6.1,84,30.38,10.0,SSW,4.6,-,N/A,,Clear,210,2012-11-27 06:56:00
1:56 AM,10.0,5.0,80,30.38,10.0,SW,3.5,-,N/A,,Clear,220,2012-11-27 07:56:00
2:56 AM,10.9,5.0,77,30.36,10.0,SSW,3.5,-,N/A,,Clear,200,2012-11-27 08:56:00
3:56 AM,12.0,7.0,80,30.34,10.0,South,6.9,-,N/A,,Clear,190,2012-11-27 09:56:00
4:56 AM,12.0,6.1,77,30.34,10.0,SSW,4.6,-,N/A,,Clear,200,2012-11-27 10:56:00
6:56 AM,15.1,8.1,74,30.30,10.0,South,5.8,-,N/A,,Scattered Clouds,180,2012-11-27 12:56:00
7:56 AM,16.0,9.0,74,30.30,10.0,SSW,5.8,-,N/A,,Partly Cloudy,210,2012-11-27 13:56:00
8:56 AM,19.9,10.9,68,30.29,10.0,SSW,11.5,-,N/A,,Partly Cloudy,210,2012-11-27 14:56:00
9:56 AM,23.0,12.0,63,30.27,10.0,South,9.2,-,N/A,,Clear,190,2012-11-27 15:56:00
10:56 AM,28.0,12.9,53,30.25,10.0,SSW,10.4,-,N/A,,Clear,200,2012-11-27 16:56:00
11:56 AM,30.0,10.9,45,30.20,10.0,SSW,13.8,-,N/A,,Overcast,200,2012-11-27 17:56:00
12:56 PM,30.9,10.9,43,30.18,10.0,SSW,11.5,-,N/A,,Overcast,210,2012-11-27 18:56:00
1:56 PM,32.0,12.0,44,30.16,10.0,SSW,11.5,-,N/A,,Overcast,210,2012-11-27 19:56:00
2:56 PM,33.1,12.0,42,30.15,10.0,SSW,12.7,-,N/A,,Overcast,200,2012-11-27 20:56:00
3:56 PM,32.0,12.9,45,30.14,10.0,SSW,12.7,-,N/A,,Overcast,200,2012-11-27 21:56:00
4:56 PM,32.0,14.0,48,30.14,10.0,SSW,8.1,-,0.00,,Overcast,210,2012-11-27 22:56:00
5:56 PM,32.0,14.0,48,30.15,10.0,SSW,6.9,-,N/A,,Overcast,210,2012-11-27 23:56:00
6:56 PM,33.1,15.1,48,30.15,10.0,SSW,8.1,-,N/A,,Overcast,210,2012-11-28 00:56:00
7:56 PM,33.1,16.0,50,30.17,10.0,WSW,6.9,-,N/A,,Overcast,250,2012-11-28 01:56:00
8:56 PM,32.0,17.1,54,30.18,10.0,WSW,5.8,-,N/A,,Overcast,240,2012-11-28 02:56:00
9:56 PM,32.0,19.0,59,30.19,10.0,WNW,3.5,-,N/A,,Overcast,290,2012-11-28 03:56:00
10:03 PM,30.2,19.4,64,30.15,10.0,NW,3.5,-,N/A,,Overcast,310,2012-11-28 04:03:00
10:25 PM,30.2,19.4,64,30.15,10.0,NW,6.9,-,N/A,,Mostly Cloudy,320,2012-11-28 04:25:00
10:56 PM,28.9,19.0,67,30.20,10.0,NW,4.6,-,N/A,,Clear,320,2012-11-28 04:56:00
11:56 PM,26.1,19.0,75,30.23,10.0,NW,3.5,-,N/A,,Clear,320,2012-11-28 05:56:00